STARLINK-1653, 46352

Orbit data source: Space-Track

STARLINK-1653, 46352 is a payload satellite owned by SpaceX/Seattle (US) in LEO that was launched on Thu, 03 Sep 2020 UTC via an FALCON 9 launch vehicle from the Air Force Eastern Test Range (AFETR). Payload-class satellites include a variety of spacecraft equipped with specific instruments for various scientific and technological missions. These include communications satellites like Starlink; space stations such as the ISS; scientific satellites like the Hubble; Earth observation satellites from companies like Planet Labs, Umbra, and HawkEye 360; GPS; miniature CubeSats for education and research; and military/defense satellites.

Loading next visibility...
Identifier
46352, 2020-062AD
Orbit
LEO
Last TLE update
9 hours ago
Origin
Manufacturer
SpaceX/Seattle
Mission
Operational Commercial Communications
Bus & Motor
STARLINK, Unknown motor
Mass
260 kg wet, ~248 kg dry
Launch date (UTC)
2020-09-03 (5 years ago)
Launch vehicle
FALCON 9
Launch site
Air Force Eastern Test Range (AFETR)
Object type
Payload
Rocket body
Debris
Shape & HBR
Box + 1 Pan, 8.86 m
Radar Cross Section
13.562 m², Large (>1 m²)

Expand to show TLE details & history

TLE from 9 hours ago
0 STARLINK-1653
1 46352U 20062AD  25182.02439832  .00001266  00000-0  10383-3 0  9992
2 46352  53.0557  46.3860 0001361  89.1065 271.0080 15.06406127266840
Epoch: 2025-07-01T00:35Z
TLE epoch observation values (Epoch: 2025-07-01T00:35:08.014Z)
Latitude
-0.00003°
Longitude
118.27679°
Altitude
548.056 km
Speed
7.589 km/s
True Right ascension
03h 05m 32s
True Declination
0° 00' 00"
Sunlit
Object was in daylight at epoch
Visualization orbit readout
Latitude
9.47043°
Longitude
-70.51869°
Altitude
547.137 km
Speed
7.591 km/s
Apparent Right ascension
12h 16m 34s
Apparent Declination
-18° 23' 52"
Sunlit
Object is in daylight
Visualization observer readout
Local Sidereal Time
20:55:39
Azimuth
281.429° WNW
Elevation
-41.92°
Doppler factor
1
Orbital elements
Apogee altitude
548.406 km
Perigee altitude
546.521 km
Semi-major axis
6,925.6 km
Eccentricity
0.00014
Inclination
53.0557°
RAAN
46.386°
Arg. of periapsis
89.1065°
True anomaly
Unknown
Mean anomaly
271.008°
Eccentric anomaly
Unknown
Mean motion
3.7658 °/min
Orbital period
95.6 mins
BSTAR
0.00010383
Loading maneuver chart data...
Loading SW <> Apogee altitude chart data...
Loading historical data...
Loading historical data...
Loading historical data...
Loading historical data...
Loading historical data...
Loading historical data...
Loading historical data...

STARLINK-1653 Visibility forecast

Observer location: undefined°, undefined°

Span
Click to sort rows by Start time (UTC) header in descending order
Start Az.
Max El. time (UTC)
Max El. Az.
Max El.
End time (UTC)
End Az.
6 mins2025-07-01 16:39:24.162Z178.652° S2025-07-01 16:42:24.162Z125.81° SE21.583°2025-07-01 16:45:24.162Z76.965° E
6 mins2025-07-01 18:19:24.162Z260.813° W2025-07-01 18:21:24.162Z317.644° NNW37.125°2025-07-01 18:25:24.162Z41.303° NE
4 mins2025-07-01 20:00:24.162Z320.682° NNW2025-07-01 20:01:24.162Z337.281° NNW15.424°2025-07-01 20:04:24.162Z24.498° NE
5 mins2025-07-01 23:21:24.162Z343.134° N2025-07-01 23:23:24.162Z29.771° NE26.376°2025-07-01 23:26:24.162Z86.013° E
6 mins2025-07-02 01:00:24.162Z292.084° WNW2025-07-02 01:03:24.162Z205.267° SW35.406°2025-07-02 01:06:24.162Z153.843° SSE
|